Simultaneous Nadir Overpasses (SNOs) Predictions

Prediction of SNOs between AQUA and METOP-A Satellite Orbit:

Table of predicted SNOs for the next 14.0 days since TLE Epoch: 5/31/2019
Index Date (AQUA) Time (AQUA) Lat,Lon (AQUA) SZA (AQUA ) Date (METOP-A) Time (METOP-A) Lat,Lon (METOP-A) SZA (METOP-A ) Distance(km) Time Diff (sec)
1 06/02/2019 10:22:22 75.16, 15.56 53.08 06/02/2019 10:21:28 75.17, 15.62 53.10 2.00 54
2 06/02/2019 11:11:48 -75.19,-176.87 126.89 06/02/2019 11:12:09 -75.20,-176.96 126.88 2.95 21
3 06/05/2019 05:56:36 75.19, 81.94 52.78 06/05/2019 05:55:51 75.18, 82.01 52.78 2.10 45
4 06/05/2019 06:46:02 -75.20,-110.47 127.21 06/05/2019 06:46:32 -75.21,-110.57 127.20 3.10 30
5 06/08/2019 01:30:50 75.16, 148.44 52.47 06/08/2019 01:30:15 75.19, 148.39 52.50 3.13 35
6 06/08/2019 02:20:17 -75.22, -44.08 127.47 06/08/2019 02:20:56 -75.22, -44.19 127.48 3.17 39
7 06/10/2019 21:05:05 75.19,-145.20 52.27 06/10/2019 21:04:39 75.19,-145.24 52.28 1.14 26
8 06/10/2019 21:54:32 -75.24, 22.31 127.68 06/10/2019 21:55:20 -75.23, 22.19 127.70 3.67 48
9 06/13/2019 15:49:41 -74.66, 114.96 128.48 06/13/2019 15:48:35 -74.57, 112.10 128.42 85.24 66
10 06/13/2019 16:39:19 75.22, -78.85 52.13 06/13/2019 16:39:02 75.19, -78.87 52.11 3.48 17
11 06/13/2019 17:28:46 -75.27, 88.68 127.82 06/13/2019 17:29:42 -75.28, 88.70 127.82 1.52 56




NCC Satellite Simultaneous Nadir Overpasses (SNOs) Prediction Service
